Flag for El Salvador Weather past 2 weeks in San Salvador, El Salvador

Now
75 °F

Clear.


Feels Like: 75 °F
Forecast: 68 / 84 °F
Wind: No wind

Location: San Salvador / Ilopango

Current Time: Jul 30, 2015 at 12:52:06 AM

Latest Report: Jul 29, 2015 at 9:50 PM


Visibility: 10 mi

Pressure: 30.01 "Hg (27.79 "Hg at 667m altitude)

Humidity: 83%

Dew point: 70 °F

Location of San SalvadorLocation

Historic Weather in San Salvador — Graph

°F

San Salvador temperature yesterday

Maximum temperature yesterday: 86 °F (at 10:50 AM)
Minimum temperature yesterday: 70 °F (at 5:50 AM)
Average temperature yesterday: 81 °F

Past Weeks' High & Low Weather Summary

 TemperatureHumidityPressure
High91 °F (Jul 26, 2:50 PM)100% (Jul 15, 6:50 AM)30.09 "Hg (Jul 15, 6:50 AM)
Low68 °F (Jul 17, 6:50 AM)43% (Jul 25, 2:50 PM)29.89 "Hg (Jul 15, 3:50 PM)
Average80 °F77%29.98 "Hg
* Reported Jul 14 9:50 PM — Jul 29 9:50 PM, San Salvador, Weather by CustomWeather, © 2015

Note: Actual official high and low records may vary slightly from our data, if they occured in-between our weather recording intervals... More about our weather records

Advertising

San Salvador weather history for previous 24 hours

 ConditionsComfort  
Time TempWeatherWind HumidityBarometerVisibility
9:50 PM
Wed, Jul 29
75 °FClear.No wind83%30.01 "Hg10 mi
8:50 PM77 °FClear.No wind79%29.98 "Hg10 mi
6:50 PM81 °FClear.5 mph74%29.95 "Hg10 mi
5:50 PM84 °FSunny.5 mph62%29.92 "Hg10 mi
4:50 PM86 °FPassing clouds.6 mph59%29.95 "HgN/A
3:50 PM84 °FPassing clouds.5 mph66%29.95 "HgN/A
2:50 PM84 °FPassing clouds.3 mph62%29.95 "HgN/A
1:50 PM86 °FPassing clouds.5 mph59%29.98 "HgN/A
12:50 PM86 °FPassing clouds.7 mph62%29.98 "HgN/A
11:50 AM86 °FPassing clouds.6 mph59%30.01 "HgN/A
10:50 AM86 °FPassing clouds.8 mph62%30.01 "HgN/A
9:50 AM82 °FSunny.10 mph70%29.95 "Hg10 mi
9:00 AM79 °FWarm.30 mph84%29.95 "HgN/A
7:50 AM77 °FSunny.7 mph79%29.95 "Hg10 mi
6:50 AM72 °FSunny.5 mph88%29.98 "Hg10 mi
5:50 AM70 °FSunny.3 mph94%29.95 "Hg10 mi
Weather by CustomWeather, © 2015

See weather overviewHow to use our weather pages